RH
14 15 17 20 26 40 45 53 56 53 46 50 54 58 54 47 66 74 71 65 58 53 55 54 53 55 56 56 57 60 66 67 70 68 68 68 60 59 56 54 51 43 42 39
13 13 16 20 23 30 38 46 50 41 45 40 48 51 45 45 51 57 63 70 59 55 55 50 50 52 52 55 54 57 57 62 61 63 67 68 66 63 64 65 57 48 42 40
11 12 14 15 20 27 33 42 50 44 41 41 45 50 43 42 42 48 55 65 69 65 58 54 52 50 50 52 53 55 52 56 58 63 64 64 66 65 64 67 66 58 50 46
13 13 12 12 17 24 32 36 39 38 39 40 50 58 44 37 46 46 50 54 59 63 66 60 54 46 47 49 51 53 51 52 55 57 62 61 63 66 65 67 71 66 52 46
16 15 13 12 13 19 25 36 35 36 36 40 51 48 55 38 42 48 52 52 55 60 67 65 62 52 50 51 48 49 49 52 56 57 59 62 63 66 68 68 70 66 52 45
18 17 14 12 15 14 22 34 41 40 41 44 50 51 43 45 48 48 49 51 53 56 69 67 68 64 60 54 51 47 46 50 53 56 58 57 60 63 67 67 68 68 58 50
16 19 16 16 17 15 14 29 47 45 48 44 53 45 47 39 42 43 50 54 53 52 61 65 64 70 70 56 53 52 44 46 50 52 54 55 56 60 62 66 66 65 61 59
19 18 16 17 18 19 13 28 38 44 38 38 45 34 38 38 41 45 53 55 54 54 52 58 61 63 69 61 59 57 54 43 46 50 52 54 55 61 63 63 67 65 62 64
21 19 19 21 19 19 21 29 36 33 36 37 36 36 31 34 41 45 53 52 53 53 53 54 55 58 61 62 67 61 65 58 44 47 53 54 56 55 62 63 65 66 66 61
24 23 20 21 20 20 23 26 36 32 33 35 30 33 37 44 46 49 51 55 52 52 53 56 56 58 63 66 68 72 74 64 53 49 50 55 56 57 56 59 61 65 64 61
25 21 27 23 22 26 23 29 29 29 29 29 29 30 31 40 46 51 51 49 51 51 50 53 55 59 62 66 68 70 71 73 73 58 53 51 54 56 56 54 54 55 59 60
23 24 35 24 27 25 30 28 30 31 33 30 28 30 33 30 46 47 49 47 47 46 48 49 51 55 58 61 66 69 72 71 71 74 69 64 53 54 57 55 53 52 51 56
32 27 36 37 27 23 25 30 32 30 29 32 34 31 34 33 37 43 44 41 41 40 42 46 50 52 56 59 60 60 68 72 78 79 77 73 69 59 54 58 58 54 50 50
35 34 33 33 32 28 27 32 33 33 32 30 30 30 34 33 38 42 42 40 40 40 40 42 42 42 46 52 58 57 58 61 68 75 74 76 73 73 59 58 60 61 56 55
35 36 37 35 40 35 34 35 35 36 35 36 36 37 36 33 35 42 42 42 41 39 39 38 38 40 43 47 50 53 57 59 60 63 67 72 79 79 72 65 64 59 61 57
39 38 39 40 35 35 34 35 35 32 33 34 32 33 33 36 36 41 43 46 44 40 39 36 37 39 37 36 40 46 50 55 58 59 60 68 78 83 78 79 78 72 69 60
44 39 42 42 37 37 38 36 33 32 30 28 30 30 33 33 36 41 46 48 50 46 42 39 38 40 41 37 38 39 43 51 55 55 55 57 68 73 81 82 82 80 78 76
51 42 42 43 43 45 38 37 32 31 29 29 28 30 33 33 36 38 41 43 42 41 41 38 39 40 40 39 39 38 39 42 47 52 52 52 53 51 52 53 59 73 77 76
51 48 43 49 44 40 39 33 31 29 28 29 28 30 30 32 33 37 36 36 38 39 40 37 38 38 37 38 36 38 39 42 41 46 47 48 47 46 46 44 49 51 57 63
52 50 50 44 44 42 39 32 28 29 33 33 31 31 33 32 33 40 39 35 36 36 36 35 34 35 37 37 38 41 42 43 45 41 39 40 41 44 44 43 41 43 49 49
52 52 45 47 45 41 34 33 30 32 32 27 31 32 33 32 34 41 39 33 32 34 35 35 36 36 35 37 38 42 46 50 47 46 44 42 38 37 38 40 41 42 46 52
51 52 48 49 47 44 34 34 33 33 32 30 30 32 35 37 36 34 32 33 36 42 41 41 43 47 45 48 54 55 52 50 50 50 50 48 45 42 41 42 47 47 47 52
52 54 52 48 46 43 39 36 35 36 34 36 36 36 36 38 40 40 38 36 40 47 55 57 58 58 58 58 61 62 55 56 55 55 56 52 50 50 48 50 53 54 55 56
49 53 58 54 47 43 43 41 41 40 42 41 40 39 39 37 37 36 37 43 51 54 57 61 64 62 62 64 65 63 60 61 62 62 60 58 57 56 59 60 59 62 62 62
62 54 61 52 53 49 48 45 45 44 43 42 42 42 44 36 37 42 48 52 54 56 54 54 52 52 57 61 64 66 63 70 69 67 73 67 68 70 72 72 71 71 74 76
61 64 56 50 55 50 50 51 49 47 46 47 45 43 42 37 43 48 52 53 58 60 62 63 60 60 65 70 75 71 71 77 73 76 78 80 85 85 85 86 86 83 84 86